sat.trackr.live / text

‹ back to catalog

STARLINK-4514

NORAD 53551 · 2022-101AA

PAYLOAD ACTIVE UNKNOWN

§ Identity

Operator
Country
US
Launch date
2022-08-19
Launch site
AFETR
Launch vehicle
Mass (kg)
RCS (m²)

Purposes: comms

External: N2YO · Heavens-Above · Gunter

§ Orbital elements

Epoch: 2026-05-25T04:31:17.148288Z

Period
95.44 min
Inclination
53.2141°
Eccentricity
0.0001502
Mean motion
15.08834866 rev/d
Perigee alt
538.7 km
Apogee alt
540.8 km
Semi-major
6,917.9 km
B*
3.6129e-5
RAAN
80.7031°
Arg perigee
88.3462°
Mean anomaly
271.7702°
Rev number
20,851

§ Raw data

STARLINK-45141 53551U 22101AA  26145.18839292  .00000287  00000+0  36129-4 0  99962 53551  53.2141  80.7031 0001502  88.3462 271.7702 15.08834866208516

JSON: /api/v1/satellites/53551 · /tle

For live sub-satellite position, see the globe view (requires WebGL).

§ Visibility from observer

Set your observer location to see the next 7 days of passes ≥ 10°. The values pass through the URL so the page stays shareable.

No JS? Fill the form by hand. The geolocation button needs JavaScript.